Regional Weather Roundup
Issued by NWS Albany, NY

Home | Current Version | Previous Version | Text Only | Print | Product List | Glossary On
Versions: 1 2 3 4 5 6 7 8 9 10 11 12 13 14 15 16 17 18 19 20 21 22 23 24 25 26 27
000
ASUS41 KALY 242210
RWRALY

NEW YORK STATE HOURLY WEATHER ROUNDUP
NATIONAL WEATHER SERVICE ALBANY NY
600 PM EDT FRI OCT 24 2014

NOTE: "FAIR" INDICATES FEW OR NO CLOUDS BELOW 12,000 FEET WITH NO
SIGNIFICANT WEATHER AND/OR NO OBSTRUCTIONS TO VISIBILITY.

NYZ032-033-038>043-046>054-057>066-NYZ062>081-242300-
EAST


CITY           SKY/WX    TMP DP  RH WIND       PRES   REMARKS
ALBANY         CLOUDY    48  44  86 NE6       29.82S
GLENS FALLS    CLOUDY    47  44  90 E7        29.84R
POUGHKEEPSIE   CLOUDY    56  46  69 CALM      29.78S
NEWBURGH       MOCLDY    55  48  76 VRB5      29.79S
MONTGOMERY     PTCLDY    57  45  64 NE3       29.77R
WHITE PLAINS   MOCLDY    56  44  64 N5        29.77S
ISLIP          MOCLDY    56  45  66 N7        29.76S
NEW YORK CITY  MOCLDY    59  46  62 E7        29.77S
CENTRAL PARK   CLEAR     58  45  62 E3        29.79S
$$

NYZ005>009-017-018-044>046-055-056-242300-
CENTRAL


CITY           SKY/WX    TMP DP  RH WIND       PRES   REMARKS
FULTON         CLEAR     51  38  60 W9        29.90F
SYRACUSE       PTCLDY    53  34  48 NW8       29.90S
ROME           CLEAR     53  41  63 W15       29.88R
ELMIRA         PTCLDY    58  30  34 N5        29.90R
BINGHAMTON     PTCLDY    53  40  61 NW10      29.89R
MONTICELLO     CLEAR     57  37  47 NW15G22   29.83R
$$

NYZ026>034-041>043-242300-
NORTH


CITY           SKY/WX    TMP DP  RH WIND       PRES   REMARKS
WATERTOWN      CLEAR     53  45  74 SW8       29.88R
FORT DRUM      NOT AVBL
MASSENA        MOCLDY    54  43  66 S6        29.85S
SARANAC LAKE   CLOUDY    46  41  82 CALM      29.84R
PLATTSBURGH    CLOUDY    50  41  71 W5        29.84S
$$

NYZ001>004-010>016-019>021-242300-
WEST


CITY           SKY/WX    TMP DP  RH WIND       PRES   REMARKS
NIAGARA FALLS  MOCLDY    51  37  58 SW9       29.95S
BUFFALO        CLOUDY    53  43  68 W14       29.95S
DUNKIRK        PTCLDY    53  44  71 W12       29.98R
JAMESTOWN      PTCLDY    52  39  62 SW8       29.98R
WELLSVILLE     PTCLDY    51  21  30 NW8       29.94F
ROCHESTER      MOCLDY    53  36  52 W8        29.93S
PENN YAN       MOCLDY    55  33  43 W6        29.91F
$$

             KEY
       WCI = WIND CHILL INDEX
       VSB = VISIBILITY
       HX  = HEAT INDEX
$$



USA.gov is the U.S. government's official web portal to all federal, state and local government web resources and services.